SWA2905 KLAX-KTPA

Flight info

Callsign SWA2905
Flight time 3h 49m
Altitude 35000
Route DOTSS2 CNERY BLH SALOM EWM J4 INK SJT CLL DAS LEV REDFN ROZZI Y280 CHRGE RAYZZ3
Aircraft B738/M-SDE2E3FGHIRWXY/LB1

Departure

Time 2026-05-03 20:15
Airport Los Angeles International Airport (KLAX)

Arrival

Time 2026-05-04 00:04
Airport Tampa International Airport (KTPA)
Time Latitude Longitude Altitude Speed Heading
2026-05-03 20:15 33.64342 -118.30021 14123 ft 371 kts 92°
2026-05-03 20:15 33.64377 -118.26871 14642 ft 377 kts 92°
2026-05-03 20:15 33.64412 -118.23694 15149 ft 382 kts 92°
2026-05-03 20:15 33.64437 -118.20532 15678 ft 386 kts 93°
2026-05-03 20:16 33.64453 -118.17287 16209 ft 391 kts 93°
2026-05-03 20:16 33.64460 -118.14000 16698 ft 396 kts 93°
2026-05-03 20:16 33.64462 -118.10673 17228 ft 400 kts 94°
2026-05-03 20:16 33.64461 -118.07327 17843 ft 402 kts 94°
2026-05-03 20:17 33.64458 -118.03956 18351 ft 407 kts 94°
2026-05-03 20:17 33.64453 -118.00530 18793 ft 412 kts 94°
2026-05-03 20:17 33.64447 -117.97062 19191 ft 418 kts 94°
2026-05-03 20:17 33.64441 -117.93554 19601 ft 423 kts 94°
2026-05-03 20:18 33.64435 -117.89990 20003 ft 428 kts 94°
2026-05-03 20:18 33.64427 -117.86399 20395 ft 434 kts 94°
2026-05-03 20:18 33.64418 -117.82755 20798 ft 438 kts 94°
2026-05-03 20:18 33.64320 -117.79090 21176 ft 439 kts 103°
2026-05-03 20:19 33.63633 -117.75542 21531 ft 437 kts 112°
2026-05-03 20:19 33.62747 -117.72039 21919 ft 440 kts 114°
2026-05-03 20:19 33.61816 -117.68525 22329 ft 444 kts 114°
2026-05-03 20:19 33.60880 -117.64976 22711 ft 449 kts 114°
2026-05-03 20:20 33.59952 -117.61374 23075 ft 454 kts 114°
2026-05-03 20:20 33.59032 -117.57731 23455 ft 458 kts 114°
2026-05-03 20:20 33.58116 -117.54056 23788 ft 462 kts 113°
2026-05-03 20:20 33.57199 -117.50346 24118 ft 466 kts 113°
2026-05-03 20:21 33.56276 -117.46608 24466 ft 468 kts 113°
2026-05-03 20:21 33.55356 -117.42890 24779 ft 471 kts 112°
2026-05-03 20:21 33.54418 -117.39110 25045 ft 474 kts 113°
2026-05-03 20:21 33.53473 -117.35310 25373 ft 476 kts 113°
2026-05-03 20:22 33.52523 -117.31500 25689 ft 478 kts 113°
2026-05-03 20:22 33.51565 -117.27669 26021 ft 481 kts 113°
2026-05-03 20:22 33.50627 -117.23807 26334 ft 486 kts 109°
2026-05-03 20:22 33.50219 -117.19738 26605 ft 498 kts 96°
2026-05-03 20:23 33.50167 -117.15575 26929 ft 501 kts 94°
2026-05-03 20:23 33.50175 -117.11377 27208 ft 505 kts 93°
2026-05-03 20:23 33.50188 -117.07169 27492 ft 507 kts 94°
2026-05-03 20:23 33.50181 -117.02930 27788 ft 509 kts 94°
2026-05-03 20:24 33.50150 -116.98732 28071 ft 512 kts 95°
2026-05-03 20:24 33.50099 -116.94458 28357 ft 514 kts 95°
2026-05-03 20:24 33.50035 -116.90169 28628 ft 516 kts 95°
2026-05-03 20:24 33.49965 -116.85849 28898 ft 519 kts 95°
2026-05-03 20:25 33.49893 -116.81516 29165 ft 522 kts 95°
2026-05-03 20:25 33.49821 -116.77161 29410 ft 524 kts 95°
2026-05-03 20:25 33.49749 -116.72793 29657 ft 526 kts 95°
2026-05-03 20:25 33.49676 -116.68397 29890 ft 529 kts 95°
2026-05-03 20:26 33.49601 -116.63978 30096 ft 531 kts 95°
2026-05-03 20:26 33.49525 -116.59547 30277 ft 533 kts 95°
2026-05-03 20:26 33.49446 -116.55086 30453 ft 536 kts 95°
2026-05-03 20:26 33.49363 -116.50605 30590 ft 538 kts 95°
2026-05-03 20:27 33.49283 -116.46117 30793 ft 540 kts 95°
2026-05-03 20:27 33.49201 -116.41616 30968 ft 542 kts 95°
2026-05-03 20:27 33.49126 -116.37095 31153 ft 544 kts 95°
2026-05-03 20:27 33.49062 -116.32563 31323 ft 544 kts 94°
2026-05-03 20:28 33.49004 -116.28086 31499 ft 544 kts 94°
2026-05-03 20:28 33.48935 -116.23548 31654 ft 546 kts 94°
2026-05-03 20:28 33.48863 -116.18991 31954 ft 545 kts 94°
2026-05-03 20:28 33.48790 -116.14441 32212 ft 544 kts 94°
2026-05-03 20:29 33.48715 -116.09905 32446 ft 544 kts 94°
2026-05-03 20:29 33.48658 -116.05373 32660 ft 546 kts 91°
2026-05-03 20:29 33.49151 -116.00851 32811 ft 549 kts 73°
2026-05-03 20:29 33.50380 -115.96530 33078 ft 547 kts 68°
2026-05-03 20:30 33.51718 -115.92263 33335 ft 547 kts 68°
2026-05-03 20:30 33.53046 -115.88046 33536 ft 548 kts 68°
2026-05-03 20:30 33.54362 -115.83755 33732 ft 549 kts 69°
2026-05-03 20:30 33.55644 -115.79445 33973 ft 548 kts 69°
2026-05-03 20:31 33.56900 -115.75133 34315 ft 544 kts 69°
2026-05-03 20:31 33.58135 -115.70857 34575 ft 542 kts 69°
2026-05-03 20:31 33.59373 -115.66575 34715 ft 544 kts 69°
2026-05-03 20:32 33.61692 -115.57923 34791 ft 546 kts 82°
2026-05-03 20:32 33.61926 -115.53406 34844 ft 541 kts 94°
2026-05-03 20:32 33.61796 -115.48876 34823 ft 543 kts 96°
2026-05-03 20:33 33.61418 -115.39811 34809 ft 545 kts 96°
2026-05-03 20:33 33.61109 -115.30720 34807 ft 546 kts 95°
2026-05-03 20:34 33.60870 -115.21660 34814 ft 547 kts 95°
2026-05-03 20:34 33.60639 -115.12545 34805 ft 546 kts 95°
2026-05-03 20:35 33.60394 -115.03455 34807 ft 544 kts 95°
2026-05-03 20:35 33.60137 -114.94388 34817 ft 543 kts 95°
2026-05-03 20:36 33.59875 -114.85351 34824 ft 541 kts 95°
2026-05-03 20:36 33.59604 -114.76331 34825 ft 539 kts 96°
2026-05-03 20:37 33.58967 -114.67465 34831 ft 536 kts 100°
2026-05-03 20:37 33.58099 -114.58598 34828 ft 534 kts 100°
2026-05-03 20:38 33.57245 -114.49743 34826 ft 535 kts 100°
2026-05-03 20:38 33.56432 -114.40873 34818 ft 535 kts 99°
2026-05-03 20:39 33.55758 -114.33435 34823 ft 536 kts 99°
2026-05-03 20:39 33.54948 -114.24593 34826 ft 536 kts 99°
2026-05-03 20:40 33.54122 -114.15679 34822 ft 538 kts 99°
2026-05-03 20:40 33.53289 -114.06767 34824 ft 539 kts 100°
2026-05-03 20:41 33.52446 -113.97821 34866 ft 539 kts 99°
2026-05-03 20:41 33.51590 -113.88883 34956 ft 539 kts 101°
2026-05-03 20:42 33.50241 -113.80138 35039 ft 536 kts 106°
2026-05-03 20:42 33.48658 -113.71416 35105 ft 536 kts 107°
2026-05-03 20:43 33.47076 -113.62687 35126 ft 536 kts 106°
2026-05-03 20:43 33.45532 -113.53946 35112 ft 535 kts 106°
2026-05-03 20:44 33.44006 -113.45216 35048 ft 535 kts 106°
2026-05-03 20:44 33.42478 -113.36499 34975 ft 534 kts 105°
2026-05-03 20:45 33.40948 -113.27806 34883 ft 533 kts 106°
2026-05-03 20:45 33.39408 -113.19126 34827 ft 532 kts 106°
2026-05-03 20:46 33.37875 -113.10532 34825 ft 531 kts 106°
2026-05-03 20:46 33.36327 -113.01886 34847 ft 531 kts 106°
2026-05-03 20:47 33.34773 -112.93236 34858 ft 531 kts 106°
2026-05-03 20:47 33.33215 -112.84601 34876 ft 531 kts 106°
2026-05-03 20:48 33.31651 -112.75968 34880 ft 532 kts 106°
2026-05-03 20:48 33.30077 -112.67320 34878 ft 532 kts 106°
2026-05-03 20:49 33.28508 -112.58729 34874 ft 532 kts 106°
2026-05-03 20:49 33.26921 -112.50080 34921 ft 533 kts 106°
2026-05-03 20:50 33.25325 -112.41415 34932 ft 533 kts 106°
2026-05-03 20:50 33.23725 -112.32764 34921 ft 534 kts 106°
2026-05-03 20:51 33.22114 -112.24090 34891 ft 534 kts 106°
2026-05-03 20:51 33.20514 -112.15475 34893 ft 528 kts 106°
2026-05-03 20:52 33.18898 -112.06855 34869 ft 535 kts 107°
2026-05-03 20:52 33.17263 -111.98193 34884 ft 539 kts 107°
2026-05-03 20:53 33.15625 -111.89507 34875 ft 532 kts 107°
2026-05-03 20:53 33.14001 -111.80925 34885 ft 528 kts 107°
2026-05-03 20:54 33.12376 -111.72386 34887 ft 528 kts 107°
2026-05-03 20:54 33.09923 -111.59571 34887 ft 528 kts 107°
2026-05-03 20:55 33.08280 -111.51023 34884 ft 529 kts 107°
2026-05-03 20:55 33.06630 -111.42471 34869 ft 531 kts 107°
2026-05-03 20:56 33.04965 -111.33878 34854 ft 532 kts 107°
2026-05-03 20:56 33.03291 -111.25267 34857 ft 534 kts 107°
2026-05-03 20:57 33.01616 -111.16688 34857 ft 536 kts 107°
2026-05-03 20:57 32.99919 -111.08027 34863 ft 537 kts 107°
2026-05-03 20:58 32.98216 -110.99369 34865 ft 537 kts 107°
2026-05-03 20:58 32.96507 -110.90714 34865 ft 537 kts 107°
2026-05-03 20:59 32.94795 -110.82069 34853 ft 534 kts 107°
2026-05-03 20:59 32.93090 -110.73499 34866 ft 530 kts 107°
2026-05-03 21:00 32.91672 -110.66396 34882 ft 529 kts 107°
2026-05-03 21:00 32.89672 -110.56432 34872 ft 528 kts 107°
2026-05-03 21:01 32.87974 -110.47995 34886 ft 528 kts 107°
2026-05-03 21:01 32.86254 -110.39488 34899 ft 530 kts 108°
2026-05-03 21:02 32.84523 -110.30956 34914 ft 532 kts 108°
2026-05-03 21:02 32.82776 -110.22378 34917 ft 536 kts 108°
2026-05-03 21:03 32.81011 -110.13739 34912 ft 538 kts 108°
2026-05-03 21:03 32.79244 -110.05117 34924 ft 539 kts 108°
2026-05-03 21:04 32.77466 -109.96471 34936 ft 535 kts 108°
2026-05-03 21:04 32.75712 -109.87976 34951 ft 531 kts 108°
2026-05-03 21:05 32.73950 -109.79477 34988 ft 529 kts 108°
2026-05-03 21:05 32.72181 -109.70985 34980 ft 529 kts 108°
2026-05-03 21:06 32.70407 -109.62498 35000 ft 530 kts 108°
2026-05-03 21:06 32.68623 -109.53990 34979 ft 531 kts 108°
2026-05-03 21:07 32.66830 -109.45472 34962 ft 533 kts 108°
2026-05-03 21:07 32.65024 -109.36921 34924 ft 535 kts 108°
2026-05-03 21:08 32.63211 -109.28364 34916 ft 535 kts 108°
2026-05-03 21:08 32.61399 -109.19844 34924 ft 536 kts 108°
2026-05-03 21:09 32.59558 -109.11216 34923 ft 536 kts 108°
2026-05-03 21:09 32.57733 -109.02697 34922 ft 535 kts 108°
2026-05-03 21:10 32.55898 -108.94160 34962 ft 534 kts 108°
2026-05-03 21:10 32.54059 -108.85634 34997 ft 533 kts 108°
2026-05-03 21:11 32.52218 -108.77133 35038 ft 532 kts 108°
2026-05-03 21:11 32.50375 -108.68651 35061 ft 531 kts 108°
2026-05-03 21:12 32.48543 -108.60247 35063 ft 530 kts 108°
2026-05-03 21:12 32.46695 -108.51801 35054 ft 530 kts 108°
2026-05-03 21:13 32.44837 -108.43339 35036 ft 529 kts 108°
2026-05-03 21:13 32.42979 -108.34901 35065 ft 528 kts 108°
2026-05-03 21:14 32.41119 -108.26495 35076 ft 528 kts 108°
2026-05-03 21:14 32.39252 -108.18078 35080 ft 529 kts 108°
2026-05-03 21:15 32.37389 -108.09709 35064 ft 529 kts 108°
2026-05-03 21:15 32.35509 -108.01291 35045 ft 530 kts 108°
2026-05-03 21:16 32.33618 -107.92852 35078 ft 531 kts 108°
2026-05-03 21:16 32.31720 -107.84411 35117 ft 531 kts 108°
2026-05-03 21:17 32.30138 -107.77398 35129 ft 532 kts 108°
2026-05-03 21:17 32.27901 -107.67511 35130 ft 532 kts 108°
2026-05-03 21:18 32.25982 -107.59061 35119 ft 532 kts 108°
2026-05-03 21:18 32.24054 -107.50602 35083 ft 533 kts 108°
2026-05-03 21:19 32.22135 -107.42206 35047 ft 532 kts 108°
2026-05-03 21:19 32.20193 -107.33742 35006 ft 532 kts 108°
2026-05-03 21:20 32.18254 -107.25319 35027 ft 532 kts 108°
2026-05-03 21:20 32.16317 -107.16932 35058 ft 532 kts 108°
2026-05-03 21:21 32.14369 -107.08523 35081 ft 531 kts 108°
2026-05-03 21:21 32.12414 -107.00110 35095 ft 531 kts 108°
2026-05-03 21:22 32.10457 -106.91721 35092 ft 530 kts 108°
2026-05-03 21:22 32.08492 -106.83324 35076 ft 530 kts 108°
2026-05-03 21:23 32.06523 -106.74935 35077 ft 531 kts 108°
2026-05-03 21:23 32.04558 -106.66591 35086 ft 531 kts 108°
2026-05-03 21:24 32.02578 -106.58207 35088 ft 531 kts 108°
2026-05-03 21:24 32.00589 -106.49815 35072 ft 532 kts 108°
2026-05-03 21:25 31.98590 -106.41403 35093 ft 533 kts 108°
2026-05-03 21:25 31.96925 -106.34417 35106 ft 533 kts 108°
2026-05-03 21:26 31.95175 -106.25930 35087 ft 535 kts 98°
2026-05-03 21:26 31.94876 -106.17190 35074 ft 535 kts 89°
2026-05-03 21:27 31.94844 -106.08406 35038 ft 536 kts 89°
2026-05-03 21:27 31.94751 -105.99618 35010 ft 537 kts 90°
2026-05-03 21:28 31.94597 -105.90819 35000 ft 537 kts 90°
2026-05-03 21:28 31.94427 -105.82097 35005 ft 536 kts 90°
2026-05-03 21:29 31.94254 -105.73324 35008 ft 536 kts 90°
2026-05-03 21:29 31.94080 -105.64556 35015 ft 535 kts 90°
2026-05-03 21:30 31.93900 -105.55794 35008 ft 534 kts 90°
2026-05-03 21:30 31.93714 -105.47052 35009 ft 534 kts 90°
2026-05-03 21:31 31.93522 -105.38313 35004 ft 534 kts 90°
2026-05-03 21:31 31.93327 -105.29565 35010 ft 533 kts 90°
2026-05-03 21:32 31.93145 -105.20886 35008 ft 533 kts 90°
2026-05-03 21:32 31.92963 -105.12160 35009 ft 533 kts 90°
2026-05-03 21:33 31.92772 -105.03423 35018 ft 534 kts 90°
2026-05-03 21:33 31.92573 -104.94677 35017 ft 534 kts 90°
2026-05-03 21:34 31.92369 -104.85978 35025 ft 536 kts 90°
2026-05-03 21:34 31.92157 -104.77213 35029 ft 536 kts 90°
2026-05-03 21:35 31.91939 -104.68454 35024 ft 535 kts 90°
2026-05-03 21:35 31.91716 -104.59692 35018 ft 535 kts 90°
2026-05-03 21:36 31.91487 -104.50955 35022 ft 534 kts 90°
2026-05-03 21:36 31.91252 -104.42211 35015 ft 533 kts 90°
2026-05-03 21:37 31.91013 -104.33544 35020 ft 533 kts 90°
2026-05-03 21:37 31.90767 -104.24831 35022 ft 532 kts 90°
2026-05-03 21:38 31.90515 -104.16120 35020 ft 532 kts 90°
2026-05-03 21:38 31.90257 -104.07404 35016 ft 532 kts 90°
2026-05-03 21:39 31.89992 -103.98685 35021 ft 533 kts 90°
2026-05-03 21:39 31.89722 -103.89968 35024 ft 533 kts 90°
2026-05-03 21:40 31.89448 -103.81307 35019 ft 533 kts 90°
2026-05-03 21:40 31.89166 -103.72584 35023 ft 534 kts 90°
2026-05-03 21:41 31.88877 -103.63851 35018 ft 534 kts 90°
2026-05-03 21:41 31.88582 -103.55104 35020 ft 535 kts 90°
2026-05-03 21:42 31.88281 -103.46354 35020 ft 535 kts 90°
2026-05-03 21:42 31.87975 -103.37619 35021 ft 535 kts 90°
2026-05-03 21:43 31.87663 -103.28875 35025 ft 534 kts 90°
2026-05-03 21:43 31.86947 -103.20220 35033 ft 535 kts 100°
2026-05-03 21:44 31.85476 -103.11639 35027 ft 535 kts 102°
2026-05-03 21:44 31.83937 -103.03071 35027 ft 535 kts 101°
2026-05-03 21:45 31.82444 -102.94505 35025 ft 534 kts 101°
2026-05-03 21:45 31.80982 -102.85934 35028 ft 534 kts 101°
2026-05-03 21:46 31.79522 -102.77362 35036 ft 534 kts 101°
2026-05-03 21:46 31.78053 -102.68790 35056 ft 534 kts 101°
2026-05-03 21:47 31.76578 -102.60236 35078 ft 534 kts 101°
2026-05-03 21:47 31.75106 -102.51744 35087 ft 534 kts 101°
2026-05-03 21:48 31.73619 -102.43196 35095 ft 534 kts 101°
2026-05-03 21:48 31.72124 -102.34639 35089 ft 534 kts 101°
2026-05-03 21:49 31.70624 -102.26087 35079 ft 535 kts 101°
2026-05-03 21:49 31.69115 -102.17522 35073 ft 535 kts 101°
2026-05-03 21:50 31.67601 -102.08961 35061 ft 535 kts 101°
2026-05-03 21:50 31.66081 -102.00401 35053 ft 536 kts 101°
2026-05-03 21:51 31.64552 -101.91825 35046 ft 536 kts 101°
2026-05-03 21:51 31.63029 -101.83317 35049 ft 536 kts 101°
2026-05-03 21:52 31.61488 -101.74748 35053 ft 536 kts 101°
2026-05-03 21:52 31.59943 -101.66186 35056 ft 536 kts 101°
2026-05-03 21:53 31.58391 -101.57622 35056 ft 537 kts 101°
2026-05-03 21:53 31.56835 -101.49068 35060 ft 537 kts 101°
2026-05-03 21:54 31.55270 -101.40504 35068 ft 537 kts 101°
2026-05-03 21:54 31.53701 -101.31949 35069 ft 536 kts 101°
2026-05-03 21:55 31.52126 -101.23392 35071 ft 536 kts 101°
2026-05-03 21:55 31.50547 -101.14852 35082 ft 536 kts 101°
2026-05-03 21:56 31.48971 -101.06357 35081 ft 536 kts 101°
2026-05-03 21:56 31.47380 -100.97818 35083 ft 536 kts 101°
2026-05-03 21:57 31.45780 -100.89265 35080 ft 536 kts 100°
2026-05-03 21:57 31.44180 -100.80741 35085 ft 536 kts 100°
2026-05-03 21:58 31.42582 -100.72262 35097 ft 536 kts 100°
2026-05-03 21:58 31.40970 -100.63742 35091 ft 535 kts 100°
2026-05-03 21:59 31.39354 -100.55232 35093 ft 535 kts 100°
2026-05-03 21:59 31.37738 -100.46745 35087 ft 535 kts 100°
2026-05-03 22:00 31.36181 -100.38242 35093 ft 534 kts 99°
2026-05-03 22:00 31.34716 -100.29742 35094 ft 533 kts 99°
2026-05-03 22:01 31.33249 -100.21239 35085 ft 533 kts 99°
2026-05-03 22:01 31.31762 -100.12744 35086 ft 533 kts 99°
2026-05-03 22:02 31.30257 -100.04244 35089 ft 534 kts 99°
2026-05-03 22:02 31.28753 -99.95790 35088 ft 535 kts 99°
2026-05-03 22:03 31.27221 -99.87209 35082 ft 536 kts 99°
2026-05-03 22:03 31.25703 -99.78736 35080 ft 536 kts 99°
2026-05-03 22:04 31.24172 -99.70222 35087 ft 535 kts 99°
2026-05-03 22:04 31.22636 -99.61715 35100 ft 534 kts 99°
2026-05-03 22:05 31.21101 -99.53244 35113 ft 532 kts 99°
2026-05-03 22:05 31.19565 -99.44804 35124 ft 530 kts 100°
2026-05-03 22:06 31.18027 -99.36386 35129 ft 529 kts 100°
2026-05-03 22:06 31.16489 -99.28000 35116 ft 528 kts 100°
2026-05-03 22:07 31.14958 -99.19680 35106 ft 527 kts 100°
2026-05-03 22:07 31.13415 -99.11329 35110 ft 526 kts 100°
2026-05-03 22:08 31.11866 -99.02981 35113 ft 526 kts 100°
2026-05-03 22:08 31.10312 -98.94634 35115 ft 526 kts 100°
2026-05-03 22:09 31.08751 -98.86280 35117 ft 527 kts 100°
2026-05-03 22:10 31.06394 -98.73726 35125 ft 529 kts 101°
2026-05-03 22:10 31.04820 -98.65386 35130 ft 530 kts 101°
2026-05-03 22:11 31.03227 -98.56975 35125 ft 531 kts 101°
2026-05-03 22:11 31.01626 -98.48555 35127 ft 532 kts 101°
2026-05-03 22:12 31.00016 -98.40112 35133 ft 533 kts 101°
2026-05-03 22:12 30.98409 -98.31722 35138 ft 534 kts 101°
2026-05-03 22:13 30.96786 -98.23280 35131 ft 534 kts 101°
2026-05-03 22:13 30.95154 -98.14824 35145 ft 534 kts 101°
2026-05-03 22:14 30.93794 -98.07798 35135 ft 534 kts 101°
2026-05-03 22:14 30.92153 -97.99353 35125 ft 534 kts 102°
2026-05-03 22:15 30.90507 -97.90913 35125 ft 534 kts 101°
2026-05-03 22:15 30.88861 -97.82499 35129 ft 533 kts 102°
2026-05-03 22:16 30.87232 -97.74206 35135 ft 533 kts 102°
2026-05-03 22:16 30.85572 -97.65782 35144 ft 533 kts 102°
2026-05-03 22:17 30.83910 -97.57382 35136 ft 533 kts 102°
2026-05-03 22:17 30.82243 -97.48985 35144 ft 532 kts 102°
2026-05-03 22:18 30.80571 -97.40595 35146 ft 532 kts 102°
2026-05-03 22:18 30.78895 -97.32212 35150 ft 532 kts 102°
2026-05-03 22:19 30.77211 -97.23821 35146 ft 533 kts 102°
2026-05-03 22:19 30.75521 -97.15429 35149 ft 533 kts 102°
2026-05-03 22:20 30.73823 -97.07029 35149 ft 534 kts 102°
2026-05-03 22:20 30.72130 -96.98683 35158 ft 534 kts 102°
2026-05-03 22:21 30.70419 -96.90274 35151 ft 534 kts 102°
2026-05-03 22:21 30.68701 -96.81862 35153 ft 534 kts 102°
2026-05-03 22:22 30.66979 -96.73460 35149 ft 534 kts 102°
2026-05-03 22:22 30.65251 -96.65057 35152 ft 534 kts 102°
2026-05-03 22:23 30.63518 -96.56664 35146 ft 534 kts 103°
2026-05-03 22:23 30.61794 -96.48334 35146 ft 533 kts 103°
2026-05-03 22:24 30.60046 -96.39962 35140 ft 533 kts 103°
2026-05-03 22:24 30.58181 -96.31650 35140 ft 532 kts 104°
2026-05-03 22:25 30.56263 -96.23353 35139 ft 532 kts 104°
2026-05-03 22:25 30.54352 -96.15050 35121 ft 531 kts 104°
2026-05-03 22:26 30.52455 -96.06762 35083 ft 531 kts 104°
2026-05-03 22:26 30.50558 -95.98484 35037 ft 531 kts 105°
2026-05-03 22:27 30.48656 -95.90211 35016 ft 531 kts 105°
2026-05-03 22:27 30.46744 -95.81927 35041 ft 531 kts 105°
2026-05-03 22:28 30.44831 -95.73665 35086 ft 531 kts 105°
2026-05-03 22:28 30.42924 -95.65451 35120 ft 531 kts 105°
2026-05-03 22:29 30.40997 -95.57182 35138 ft 531 kts 105°
2026-05-03 22:29 30.39061 -95.48894 35153 ft 532 kts 105°
2026-05-03 22:30 30.37121 -95.40620 35147 ft 532 kts 105°
2026-05-03 22:30 30.35174 -95.32338 35153 ft 533 kts 105°
2026-05-03 22:31 30.33222 -95.24063 35146 ft 533 kts 105°
2026-05-03 22:31 30.31275 -95.15831 35159 ft 533 kts 106°
2026-05-03 22:32 30.29309 -95.07548 35160 ft 533 kts 106°
2026-05-03 22:32 30.27338 -94.99267 35166 ft 534 kts 106°
2026-05-03 22:33 30.25361 -94.90984 35159 ft 534 kts 106°
2026-05-03 22:33 30.23380 -94.82713 35165 ft 534 kts 106°
2026-05-03 22:34 30.21391 -94.74429 35161 ft 534 kts 106°
2026-05-03 22:34 30.19399 -94.66153 35160 ft 535 kts 106°
2026-05-03 22:35 30.17527 -94.57885 35158 ft 535 kts 104°
2026-05-03 22:35 30.15850 -94.49504 35162 ft 535 kts 103°
2026-05-03 22:36 30.14185 -94.41130 35160 ft 535 kts 103°
2026-05-03 22:36 30.12477 -94.32755 35157 ft 535 kts 104°
2026-05-03 22:37 30.10740 -94.24382 35151 ft 535 kts 104°
2026-05-03 22:37 30.09010 -94.16083 35149 ft 535 kts 104°
2026-05-03 22:38 30.07263 -94.07727 35151 ft 535 kts 104°
2026-05-03 22:38 30.05513 -93.99368 35157 ft 535 kts 104°
2026-05-03 22:39 30.03759 -93.91022 35175 ft 535 kts 104°
2026-05-03 22:39 30.02001 -93.82682 35178 ft 535 kts 104°
2026-05-03 22:40 30.00237 -93.74339 35173 ft 535 kts 104°
2026-05-03 22:40 29.98478 -93.66051 35176 ft 535 kts 105°
2026-05-03 22:41 29.96705 -93.57726 35178 ft 535 kts 105°
2026-05-03 22:41 29.94912 -93.49335 35175 ft 535 kts 105°
2026-05-03 22:42 29.93139 -93.41064 35175 ft 535 kts 105°
2026-05-03 22:42 29.91337 -93.32681 35174 ft 535 kts 105°
2026-05-03 22:43 29.89540 -93.24355 35169 ft 535 kts 105°
2026-05-03 22:43 29.87751 -93.16088 35174 ft 535 kts 105°
2026-05-03 22:44 29.85933 -93.07718 35176 ft 535 kts 105°
2026-05-03 22:44 29.84133 -92.99455 35180 ft 535 kts 105°
2026-05-03 22:45 29.82313 -92.91128 35176 ft 535 kts 106°
2026-05-03 22:45 29.80489 -92.82811 35174 ft 535 kts 106°
2026-05-03 22:46 29.78662 -92.74507 35171 ft 535 kts 106°
2026-05-03 22:46 29.76831 -92.66210 35172 ft 534 kts 106°
2026-05-03 22:47 29.75007 -92.57970 35170 ft 534 kts 107°
2026-05-03 22:47 29.73164 -92.49674 35163 ft 534 kts 107°
2026-05-03 22:48 29.71321 -92.41402 35162 ft 533 kts 107°
2026-05-03 22:48 29.69475 -92.33140 35162 ft 533 kts 107°
2026-05-03 22:49 29.67623 -92.24881 35150 ft 532 kts 107°
2026-05-03 22:49 29.65769 -92.16636 35148 ft 532 kts 108°
2026-05-03 22:50 29.63913 -92.08411 35149 ft 531 kts 108°
2026-05-03 22:50 29.62064 -92.00242 35152 ft 531 kts 108°
2026-05-03 22:51 29.60201 -91.92036 35160 ft 531 kts 108°
2026-05-03 22:51 29.58312 -91.83746 35167 ft 540 kts 108°
2026-05-03 22:52 29.56390 -91.75343 35165 ft 545 kts 108°
2026-05-03 22:52 29.54461 -91.66914 35156 ft 546 kts 108°
2026-05-03 22:53 29.52522 -91.58470 35163 ft 546 kts 109°
2026-05-03 22:53 29.50583 -91.50059 35161 ft 545 kts 109°
2026-05-03 22:54 29.48640 -91.41658 35160 ft 544 kts 109°
2026-05-03 22:54 29.46706 -91.33320 35153 ft 542 kts 109°
2026-05-03 22:55 29.44761 -91.24963 35160 ft 541 kts 109°
2026-05-03 22:55 29.42816 -91.16629 35155 ft 540 kts 109°
2026-05-03 22:56 29.40869 -91.08315 35157 ft 539 kts 109°
2026-05-03 22:56 29.38918 -91.00009 35153 ft 539 kts 110°
2026-05-03 22:57 29.36975 -90.91764 35157 ft 539 kts 110°
2026-05-03 22:57 29.35018 -90.83482 35150 ft 539 kts 110°
2026-05-03 22:58 29.33052 -90.75187 35153 ft 539 kts 110°
2026-05-03 22:58 29.31080 -90.66887 35152 ft 540 kts 110°
2026-05-03 22:59 29.29434 -90.59982 35151 ft 541 kts 110°
2026-05-03 22:59 29.27444 -90.51654 35148 ft 542 kts 111°
2026-05-03 23:00 29.25448 -90.43329 35152 ft 542 kts 111°
2026-05-03 23:00 29.23446 -90.35001 35154 ft 543 kts 111°
2026-05-03 23:01 29.21433 -90.26650 35153 ft 543 kts 111°
2026-05-03 23:01 29.19416 -90.18309 35146 ft 544 kts 109°
2026-05-03 23:02 29.17408 -90.10027 35152 ft 543 kts 111°
2026-05-03 23:02 29.15592 -90.01609 35153 ft 545 kts 108°
2026-05-03 23:03 29.13940 -89.93155 35147 ft 545 kts 108°
2026-05-03 23:03 29.12263 -89.84692 35148 ft 544 kts 108°
2026-05-03 23:04 29.10550 -89.76281 35147 ft 543 kts 109°
2026-05-03 23:04 29.08815 -89.67870 35151 ft 543 kts 109°
2026-05-03 23:05 29.07075 -89.59458 35151 ft 543 kts 109°
2026-05-03 23:05 29.05331 -89.51042 35158 ft 543 kts 109°
2026-05-03 23:06 29.03596 -89.42686 35152 ft 544 kts 109°
2026-05-03 23:06 29.01845 -89.34286 35157 ft 544 kts 109°
2026-05-03 23:07 29.00085 -89.25869 35149 ft 544 kts 109°
2026-05-03 23:07 28.98322 -89.17465 35152 ft 544 kts 109°
2026-05-03 23:08 28.96552 -89.09053 35151 ft 545 kts 109°
2026-05-03 23:08 28.94777 -89.00647 35149 ft 545 kts 109°
2026-05-03 23:09 28.92995 -88.92236 35145 ft 544 kts 109°
2026-05-03 23:09 28.91210 -88.83838 35149 ft 544 kts 109°
2026-05-03 23:10 28.89421 -88.75444 35149 ft 544 kts 109°
2026-05-03 23:10 28.87545 -88.67102 35147 ft 541 kts 112°
2026-05-03 23:11 28.85303 -88.58917 35145 ft 539 kts 114°
2026-05-03 23:11 28.82968 -88.50785 35148 ft 539 kts 114°
2026-05-03 23:12 28.80678 -88.42695 35142 ft 539 kts 114°
2026-05-03 23:12 28.78407 -88.34554 35149 ft 539 kts 113°
2026-05-03 23:13 28.76142 -88.26419 35141 ft 539 kts 113°
2026-05-03 23:13 28.73871 -88.18288 35146 ft 538 kts 114°
2026-05-03 23:14 28.71593 -88.10166 35139 ft 538 kts 114°
2026-05-03 23:14 28.69308 -88.02042 35145 ft 537 kts 114°
2026-05-03 23:15 28.67023 -87.93937 35138 ft 537 kts 114°
2026-05-03 23:15 28.64731 -87.85831 35147 ft 537 kts 114°
2026-05-03 23:16 28.62452 -87.77789 35136 ft 537 kts 114°
2026-05-03 23:16 28.60151 -87.69691 35140 ft 537 kts 114°
2026-05-03 23:17 28.57849 -87.61609 35135 ft 536 kts 114°
2026-05-03 23:17 28.55545 -87.53540 35134 ft 536 kts 114°
2026-05-03 23:18 28.53236 -87.45474 35130 ft 536 kts 114°
2026-05-03 23:18 28.50924 -87.37418 35137 ft 536 kts 114°
2026-05-03 23:19 28.48608 -87.29366 35128 ft 536 kts 114°
2026-05-03 23:19 28.46297 -87.21357 35135 ft 535 kts 114°
2026-05-03 23:20 28.43972 -87.13315 35127 ft 535 kts 114°
2026-05-03 23:20 28.41644 -87.05281 35133 ft 535 kts 114°
2026-05-03 23:21 28.39307 -86.97239 35124 ft 535 kts 114°
2026-05-03 23:21 28.36967 -86.89203 35132 ft 535 kts 114°
2026-05-03 23:22 28.33466 -86.77215 35124 ft 535 kts 114°
2026-05-03 23:22 28.31119 -86.69202 35126 ft 535 kts 114°
2026-05-03 23:23 28.28775 -86.61189 35122 ft 535 kts 114°
2026-05-03 23:23 28.26430 -86.53169 35122 ft 535 kts 114°
2026-05-03 23:24 28.24084 -86.45165 35119 ft 534 kts 114°
2026-05-03 23:24 28.21730 -86.37157 35121 ft 534 kts 114°
2026-05-03 23:25 28.19391 -86.29220 35114 ft 534 kts 114°
2026-05-03 23:25 28.17030 -86.21231 35117 ft 533 kts 114°
2026-05-03 23:26 28.15847 -86.17232 35286 ft 533 kts 115°
2026-05-03 23:26 28.14680 -86.13296 35225 ft 534 kts 115°
2026-05-03 23:26 28.12306 -86.05304 35121 ft 535 kts 115°
2026-05-03 23:27 28.09935 -85.97331 35113 ft 533 kts 115°
2026-05-03 23:27 28.07568 -85.89390 35106 ft 531 kts 115°
2026-05-03 23:28 28.05201 -85.81473 35105 ft 529 kts 115°
2026-05-03 23:28 28.02839 -85.73592 35101 ft 527 kts 115°
2026-05-03 23:29 28.00481 -85.65744 35105 ft 526 kts 115°
2026-05-03 23:29 27.98136 -85.57956 35108 ft 526 kts 116°
2026-05-03 23:30 27.95772 -85.50123 35109 ft 526 kts 116°
2026-05-03 23:30 27.93400 -85.42280 35111 ft 527 kts 116°
2026-05-03 23:31 27.91020 -85.34428 35105 ft 529 kts 116°
2026-05-03 23:31 27.88652 -85.26591 34884 ft 521 kts 115°
2026-05-03 23:32 27.87738 -85.22616 34378 ft 526 kts 107°
2026-05-03 23:32 27.87039 -85.18537 33732 ft 530 kts 105°
2026-05-03 23:32 27.86401 -85.14459 33416 ft 519 kts 105°
2026-05-03 23:32 27.85791 -85.10494 33192 ft 506 kts 105°
2026-05-03 23:33 27.85172 -85.06611 32785 ft 497 kts 105°
2026-05-03 23:33 27.84547 -85.02820 32621 ft 485 kts 106°
2026-05-03 23:33 27.83923 -84.99134 32208 ft 485 kts 106°
2026-05-03 23:33 27.83271 -84.95339 31702 ft 488 kts 105°
2026-05-03 23:34 27.82631 -84.91611 31119 ft 487 kts 105°
2026-05-03 23:34 27.81995 -84.87871 30559 ft 484 kts 104°
2026-05-03 23:34 27.81367 -84.84146 29988 ft 485 kts 102°
2026-05-03 23:34 27.81135 -84.80309 29318 ft 490 kts 89°
2026-05-03 23:35 27.81294 -84.76466 28716 ft 491 kts 87°
2026-05-03 23:35 27.81538 -84.72618 28102 ft 492 kts 86°
2026-05-03 23:35 27.81801 -84.68754 27488 ft 492 kts 86°
2026-05-03 23:35 27.82046 -84.64916 26874 ft 487 kts 87°
2026-05-03 23:36 27.82264 -84.61132 26455 ft 477 kts 87°
2026-05-03 23:36 27.82457 -84.57429 26069 ft 467 kts 88°
2026-05-03 23:36 27.82634 -84.53803 25692 ft 458 kts 88°
2026-05-03 23:36 27.82801 -84.50220 25333 ft 455 kts 88°
2026-05-03 23:37 27.82965 -84.46659 24966 ft 452 kts 88°
2026-05-03 23:37 27.83127 -84.43130 24594 ft 449 kts 88°
2026-05-03 23:37 27.83288 -84.39611 24205 ft 447 kts 88°
2026-05-03 23:37 27.83448 -84.36113 23838 ft 444 kts 88°
2026-05-03 23:38 27.83608 -84.32635 23411 ft 442 kts 88°
2026-05-03 23:38 27.83765 -84.29180 23007 ft 439 kts 88°
2026-05-03 23:38 27.83921 -84.25747 22619 ft 435 kts 88°
2026-05-03 23:38 27.84074 -84.22385 22250 ft 432 kts 89°
2026-05-03 23:39 27.84225 -84.19009 21884 ft 428 kts 89°
2026-05-03 23:39 27.84375 -84.15662 21520 ft 424 kts 89°
2026-05-03 23:39 27.84523 -84.12338 21158 ft 421 kts 89°
2026-05-03 23:39 27.84668 -84.09050 20804 ft 418 kts 89°
2026-05-03 23:40 27.84812 -84.05770 20449 ft 415 kts 89°
2026-05-03 23:40 27.84952 -84.02564 20101 ft 412 kts 89°
2026-05-03 23:40 27.85093 -83.99327 19743 ft 409 kts 89°
2026-05-03 23:40 27.85231 -83.96132 19397 ft 407 kts 89°
2026-05-03 23:41 27.85369 -83.92936 19049 ft 404 kts 89°
2026-05-03 23:41 27.85523 -83.89771 18698 ft 402 kts 88°
2026-05-03 23:41 27.85756 -83.86626 18326 ft 401 kts 86°
2026-05-03 23:41 27.86026 -83.83498 17939 ft 398 kts 86°
2026-05-03 23:42 27.86297 -83.80436 17571 ft 395 kts 86°
2026-05-03 23:42 27.86567 -83.77353 17198 ft 393 kts 86°
2026-05-03 23:42 27.86829 -83.74283 16811 ft 391 kts 86°
2026-05-03 23:42 27.87083 -83.71240 16453 ft 388 kts 86°
2026-05-03 23:43 27.87330 -83.68222 16105 ft 385 kts 86°
2026-05-03 23:43 27.87573 -83.65223 15769 ft 381 kts 86°
2026-05-03 23:43 27.87813 -83.62245 15423 ft 378 kts 86°
2026-05-03 23:43 27.87970 -83.60290 15199 ft 376 kts 86°
2026-05-03 23:44 27.88205 -83.57344 14865 ft 374 kts 86°
2026-05-03 23:44 27.88438 -83.54428 14528 ft 371 kts 86°
2026-05-03 23:44 27.88668 -83.51531 14182 ft 369 kts 86°
2026-05-03 23:44 27.88897 -83.48646 13813 ft 367 kts 86°
2026-05-03 23:45 27.89123 -83.45782 13439 ft 365 kts 86°
2026-05-03 23:45 27.89348 -83.42939 13072 ft 362 kts 86°
2026-05-03 23:45 27.89571 -83.40112 12714 ft 359 kts 86°
2026-05-03 23:45 27.89791 -83.37309 12356 ft 357 kts 85°
2026-05-03 23:46 27.90009 -83.34520 11988 ft 355 kts 85°
2026-05-03 23:46 27.90226 -83.31745 11627 ft 353 kts 85°
2026-05-03 23:46 27.90441 -83.28988 11273 ft 348 kts 85°
2026-05-03 23:46 27.90648 -83.26329 10952 ft 340 kts 85°
2026-05-03 23:47 27.90853 -83.23691 10627 ft 332 kts 85°
2026-05-03 23:47 27.91052 -83.21121 10320 ft 325 kts 85°
2026-05-03 23:47 27.91246 -83.18600 10095 ft 318 kts 84°
2026-05-03 23:47 27.91636 -83.16180 9927 ft 310 kts 67°
2026-05-03 23:48 27.92539 -83.14006 9766 ft 302 kts 61°
2026-05-03 23:48 27.93493 -83.11919 9582 ft 297 kts 60°
2026-05-03 23:48 27.94444 -83.09853 9425 ft 295 kts 60°
2026-05-03 23:48 27.95386 -83.07792 9262 ft 295 kts 60°
2026-05-03 23:49 27.96322 -83.05725 9095 ft 295 kts 61°
2026-05-03 23:49 27.97252 -83.03654 8931 ft 295 kts 61°
2026-05-03 23:49 27.98177 -83.01586 8768 ft 294 kts 61°
2026-05-03 23:49 27.99100 -82.99514 8600 ft 294 kts 61°
2026-05-03 23:50 28.00015 -82.97455 8432 ft 293 kts 62°
2026-05-03 23:50 28.00928 -82.95399 8283 ft 292 kts 62°
2026-05-03 23:50 28.01836 -82.93352 8120 ft 290 kts 61°
2026-05-03 23:50 28.02737 -82.91318 7955 ft 287 kts 62°
2026-05-03 23:51 28.03627 -82.89309 7796 ft 283 kts 62°
2026-05-03 23:51 28.04494 -82.87353 7635 ft 279 kts 61°
2026-05-03 23:51 28.05361 -82.85392 7486 ft 276 kts 62°
2026-05-03 23:51 28.05912 -82.83326 7314 ft 277 kts 86°
2026-05-03 23:52 28.05676 -82.81187 7192 ft 274 kts 104°
2026-05-03 23:52 28.05160 -82.79111 7053 ft 274 kts 105°
2026-05-03 23:52 28.04622 -82.77049 6895 ft 273 kts 106°
2026-05-03 23:52 28.04089 -82.74993 6742 ft 272 kts 105°
2026-05-03 23:53 28.03563 -82.72927 6600 ft 272 kts 105°
2026-05-03 23:53 28.03046 -82.70870 6447 ft 271 kts 105°
2026-05-03 23:53 28.02535 -82.68821 6280 ft 268 kts 104°
2026-05-03 23:53 28.02030 -82.66796 6129 ft 265 kts 104°
2026-05-03 23:54 28.01538 -82.64821 5988 ft 263 kts 105°
2026-05-03 23:54 28.00719 -82.62991 5823 ft 262 kts 131°
2026-05-03 23:54 27.99233 -82.61845 5684 ft 261 kts 160°
2026-05-03 23:54 27.97456 -82.61534 5557 ft 257 kts 179°
2026-05-03 23:55 27.95689 -82.61598 5411 ft 251 kts 182°
2026-05-03 23:55 27.93968 -82.61702 5263 ft 245 kts 181°
2026-05-03 23:55 27.92285 -82.61792 5133 ft 239 kts 181°
2026-05-03 23:55 27.90623 -82.61869 5021 ft 238 kts 180°
2026-05-03 23:56 27.88956 -82.61944 4829 ft 244 kts 180°
2026-05-03 23:56 27.87283 -82.62013 4614 ft 235 kts 180°
2026-05-03 23:56 27.85667 -82.62079 4310 ft 230 kts 180°
2026-05-03 23:56 27.84076 -82.62142 4022 ft 226 kts 180°
2026-05-03 23:57 27.82521 -82.62203 3755 ft 226 kts 179°
2026-05-03 23:57 27.80948 -82.62264 3491 ft 226 kts 179°
2026-05-03 23:57 27.79383 -82.62326 3206 ft 223 kts 179°
2026-05-03 23:57 27.77847 -82.62387 2932 ft 220 kts 179°
2026-05-03 23:58 27.76351 -82.62220 2635 ft 213 kts 153°
2026-05-03 23:58 27.75299 -82.61228 2564 ft 189 kts 115°
2026-05-03 23:58 27.74973 -82.59872 2570 ft 176 kts 95°
2026-05-03 23:58 27.74833 -82.58497 2559 ft 177 kts 94°
2026-05-03 23:59 27.74998 -82.57133 2563 ft 178 kts 60°
2026-05-03 23:59 27.75874 -82.56158 2569 ft 181 kts 36°
2026-05-03 23:59 27.76942 -82.55381 2550 ft 183 kts 29°
2026-05-03 23:59 27.78182 -82.55038 2565 ft 185 kts
2026-05-04 00:00 27.79471 -82.54876 2571 ft 186 kts
2026-05-04 00:00 27.80768 -82.54780 2572 ft 187 kts
2026-05-04 00:00 27.82057 -82.54724 2555 ft 187 kts
2026-05-04 00:00 27.83361 -82.54678 2461 ft 190 kts
2026-05-04 00:01 27.84649 -82.54635 2241 ft 180 kts
2026-05-04 00:01 27.85871 -82.54594 2009 ft 172 kts
2026-05-04 00:01 27.87038 -82.54554 1813 ft 166 kts
2026-05-04 00:01 27.88173 -82.54515 1585 ft 159 kts
2026-05-04 00:02 27.89242 -82.54478 1374 ft 150 kts
2026-05-04 00:02 27.90264 -82.54443 1187 ft 145 kts
2026-05-04 00:02 27.91271 -82.54408 1011 ft 145 kts
2026-05-04 00:02 27.92284 -82.54374 835 ft 147 kts
2026-05-04 00:03 27.93319 -82.54338 643 ft 150 kts
2026-05-04 00:03 27.94378 -82.54301 433 ft 154 kts
2026-05-04 00:03 27.95424 -82.54266 248 ft 151 kts
2026-05-04 00:03 27.96461 -82.54237 70 ft 149 kts
2026-05-04 00:04 27.97403 -82.54200 49 ft 110 kts
2026-05-04 00:04 27.97949 -82.54181 47 ft 45 kts
2026-05-04 00:04 27.98220 -82.54143 49 ft 35 kts 19°
2026-05-04 00:04 27.98367 -82.54055 48 ft 15 kts 31°
2026-05-04 00:05 27.98470 -82.54039 47 ft 15 kts
2026-05-04 00:05 27.98571 -82.54033 47 ft 14 kts 17°
2026-05-04 00:05 27.98590 -82.53959 47 ft 11 kts 96°
2026-05-04 00:05 27.98586 -82.53878 48 ft 11 kts 92°
2026-05-04 00:06 27.98583 -82.53769 46 ft 17 kts 92°
2026-05-04 00:06 27.98579 -82.53630 55 ft 17 kts 92°
2026-05-04 00:06 27.98574 -82.53496 63 ft 17 kts 92°
2026-05-04 00:06 27.98571 -82.53359 58 ft 19 kts 92°
2026-05-04 00:07 27.98566 -82.53200 46 ft 12 kts 91°
2026-05-04 00:07 27.98529 -82.53146 43 ft 5 kts 172°
2026-05-04 00:07 27.98498 -82.53170 43 ft 6 kts 232°
2026-05-04 00:07 27.98471 -82.53195 42 ft 4 kts 193°
2026-05-04 00:08 27.98447 -82.53202 41 ft 3 kts 197°
2026-05-04 00:08 27.98432 -82.53210 42 ft 2 kts 210°
2026-05-04 00:08 27.98425 -82.53215 42 ft 0 kts 210°